Temp
-10 -10 -10 -10 -10 -10 -10 -10 -10 -10 -10 -10 -10 -10 -10 -10 -10 -10 -10 -10 -10 -10 -10 -9 -9 -9 -9 -9 -9 -9 -8 -7 -8 -9 -8 -10 -9 -10 -10 -9 -11 -12 -11 -10 -10
-11 -11 -11 -11 -11 -11 -11 -11 -11 -11 -10 -10 -10 -10 -10 -10 -11 -10 -10 -10 -10 -10 -10 -9 -9 -9 -9 -9 -9 -9 -8 -8 -8 -8 -8 -8 -9 -10 -9 -9 -11 -12 -11 -11 -11
-11 -11 -11 -11 -11 -11 -11 -11 -11 -11 -11 -11 -11 -11 -11 -11 -11 -11 -10 -10 -10 -10 -10 -10 -10 -9 -9 -9 -9 -9 -8 -9 -8 -9 -9 -8 -9 -10 -10 -10 -10 -12 -12 -11 -12
-10 -11 -11 -12 -12 -12 -12 -12 -12 -12 -11 -11 -11 -11 -11 -11 -11 -10 -10 -11 -11 -10 -10 -10 -9 -9 -9 -9 -9 -9 -9 -9 -9 -9 -9 -8 -8 -9 -10 -10 -11 -11 -13 -12 -12
-11 -11 -11 -12 -12 -12 -12 -12 -12 -12 -12 -11 -11 -11 -11 -11 -12 -10 -11 -11 -10 -10 -10 -10 -10 -9 -9 -9 -9 -9 -9 -9 -9 -9 -10 -10 -10 -9 -10 -11 -12 -12 -13 -13 -13
-12 -11 -11 -11 -12 -12 -12 -13 -13 -12 -12 -12 -11 -11 -11 -11 -12 -11 -11 -11 -11 -11 -10 -10 -10 -10 -9 -10 -10 -10 -9 -10 -10 -10 -10 -10 -10 -9 -10 -11 -11 -11 -12 -13 -14
-12 -12 -12 -13 -12 -12 -12 -12 -13 -13 -12 -12 -12 -11 -11 -12 -11 -11 -12 -12 -12 -11 -11 -11 -10 -10 -10 -10 -10 -10 -10 -10 -11 -12 -11 -10 -10 -11 -11 -11 -11 -12 -13 -13 -13
-12 -12 -12 -13 -13 -13 -13 -13 -13 -13 -13 -12 -12 -11 -11 -12 -11 -12 -12 -12 -12 -11 -11 -11 -11 -10 -10 -11 -11 -11 -11 -11 -13 -13 -12 -12 -10 -12 -12 -12 -11 -12 -13 -14 -14
-12 -12 -12 -12 -13 -13 -14 -13 -13 -13 -13 -12 -12 -11 -12 -12 -12 -12 -12 -12 -12 -11 -11 -11 -11 -11 -12 -12 -12 -12 -12 -12 -13 -14 -13 -13 -12 -12 -13 -13 -13 -13 -13 -14 -14
-13 -13 -13 -14 -14 -15 -14 -14 -14 -14 -14 -13 -12 -12 -12 -12 -13 -13 -13 -12 -12 -12 -11 -11 -11 -11 -13 -13 -12 -13 -12 -12 -13 -15 -14 -14 -13 -13 -14 -14 -14 -14 -14 -14 -14
-15 -15 -15 -16 -15 -15 -15 -15 -15 -14 -13 -14 -13 -13 -13 -13 -13 -13 -13 -13 -12 -12 -12 -12 -11 -13 -14 -13 -13 -13 -13 -13 -15 -15 -14 -15 -14 -14 -15 -15 -14 -14 -14 -15 -15
-18 -18 -17 -17 -17 -16 -17 -17 -16 -14 -14 -14 -14 -14 -14 -13 -14 -14 -13 -14 -13 -13 -13 -13 -13 -16 -14 -14 -14 -14 -14 -14 -15 -16 -15 -15 -14 -15 -16 -15 -15 -15 -15 -15 -16
-18 -18 -18 -18 -18 -17 -18 -17 -17 -17 -16 -14 -14 -14 -15 -14 -14 -14 -13 -14 -13 -14 -14 -14 -16 -15 -16 -15 -15 -15 -15 -15 -15 -16 -16 -16 -15 -15 -16 -15 -17 -17 -16 -16 -15
-19 -19 -19 -19 -19 -18 -18 -18 -18 -18 -17 -15 -15 -14 -15 -14 -14 -15 -15 -15 -15 -16 -15 -15 -17 -16 -16 -16 -16 -16 -16 -16 -16 -16 -16 -16 -16 -15 -15 -16 -17 -17 -16 -16 -16
-19 -19 -20 -19 -19 -19 -19 -19 -19 -18 -18 -17 -16 -15 -16 -15 -15 -16 -16 -16 -16 -16 -16 -16 -17 -17 -17 -17 -17 -16 -17 -17 -16 -16 -16 -16 -18 -15 -15 -16 -17 -17 -17 -17 -16
-19 -19 -20 -19 -19 -19 -19 -19 -19 -19 -19 -18 -17 -17 -16 -16 -16 -17 -17 -17 -17 -17 -17 -18 -18 -17 -17 -17 -17 -17 -17 -17 -17 -17 -17 -17 -18 -16 -16 -16 -17 -17 -17 -17 -17
-20 -19 -20 -19 -19 -19 -19 -19 -19 -19 -19 -19 -18 -17 -17 -18 -17 -17 -18 -18 -18 -18 -18 -18 -18 -18 -18 -18 -18 -18 -18 -18 -18 -18 -18 -18 -17 -17 -17 -18 -17 -17 -17 -17 -16
-20 -19 -20 -20 -19 -19 -19 -19 -19 -18 -18 -18 -19 -19 -18 -18 -18 -19 -19 -18 -18 -19 -19 -18 -19 -19 -19 -19 -19 -19 -19 -19 -19 -19 -18 -18 -17 -17 -18 -19 -18 -18 -17 -17 -16
-20 -20 -20 -19 -19 -20 -20 -19 -19 -18 -19 -19 -20 -20 -19 -19 -20 -21 -20 -19 -19 -19 -20 -19 -19 -20 -20 -20 -19 -19 -20 -20 -20 -19 -19 -17 -18 -18 -19 -19 -18 -18 -18 -17 -16
-20 -20 -20 -19 -20 -20 -20 -20 -20 -20 -21 -21 -21 -21 -20 -21 -21 -21 -21 -20 -20 -20 -21 -20 -19 -19 -20 -20 -20 -20 -20 -20 -20 -20 -19 -18 -18 -18 -19 -19 -18 -18 -17 -17 -17
-20 -20 -20 -19 -20 -21 -21 -21 -21 -22 -22 -22 -22 -22 -22 -23 -23 -22 -22 -21 -21 -21 -21 -20 -20 -19 -20 -21 -21 -21 -20 -20 -20 -21 -21 -20 -18 -19 -20 -19 -19 -19 -18 -18 -17
-20 -20 -19 -20 -21 -22 -22 -21 -22 -23 -23 -23 -23 -23 -23 -22 -23 -23 -23 -22 -22 -21 -21 -21 -20 -19 -20 -20 -21 -21 -21 -21 -21 -21 -21 -21 -19 -20 -20 -19 -19 -19 -18 -18 -17
-21 -21 -20 -21 -22 -23 -24 -24 -24 -24 -23 -23 -23 -23 -23 -23 -24 -23 -23 -22 -22 -22 -22 -21 -20 -20 -20 -20 -21 -21 -21 -21 -22 -22 -21 -22 -21 -20 -20 -19 -20 -19 -19 -18 -18
-21 -21 -21 -21 -23 -23 -23 -23 -23 -24 -24 -23 -23 -23 -24 -24 -24 -23 -23 -23 -22 -22 -22 -21 -21 -21 -21 -21 -21 -22 -22 -23 -23 -22 -22 -21 -21 -21 -20 -20 -20 -19 -19 -19 -19
-22 -22 -23 -23 -24 -24 -24 -25 -24 -25 -25 -25 -25 -24 -24 -24 -24 -23 -23 -22 -22 -21 -21 -22 -22 -22 -22 -23 -23 -22 -23 -23 -23 -23 -22 -22 -21 -21 -20 -20 -19 -19 -19 -19 -19
-24 -24 -24 -24 -24 -25 -25 -25 -26 -25 -25 -25 -25 -24 -24 -23 -23 -23 -22 -22 -22 -22 -22 -22 -23 -23 -24 -24 -25 -25 -24 -24 -24 -24 -22 -22 -22 -21 -21 -21 -20 -19 -20 -20 -19
-24 -25 -25 -25 -25 -25 -26 -26 -26 -25 -25 -25 -24 -24 -23 -23 -23 -23 -22 -23 -23 -23 -23 -23 -24 -25 -25 -26 -26 -26 -26 -26 -25 -25 -24 -23 -22 -22 -22 -21 -21 -20 -20 -20 -19
Height
5777 5776 5776 5777 5777 5776 5776 5776 5775 5775 5774 5774 5775 5775 5776 5777 5777 5777 5777 5778 5775 5778 5778 5777 5778 5777 5778 5780 5779 5777 5775 5776 5779 5778 5775 5773 5771 5770 5768 5769 5770 5772 5774 5775 5775
5767 5766 5767 5767 5767 5767 5767 5766 5767 5767 5767 5766 5767 5768 5768 5769 5770 5769 5770 5769 5768 5769 5769 5770 5769 5769 5770 5770 5768 5769 5768 5769 5769 5766 5766 5764 5762 5764 5762 5761 5763 5764 5763 5765 5767
5756 5757 5756 5757 5757 5757 5756 5757 5757 5758 5759 5758 5759 5760 5761 5761 5762 5761 5759 5761 5761 5760 5760 5759 5760 5761 5761 5759 5760 5759 5758 5759 5759 5756 5756 5756 5756 5755 5753 5754 5755 5755 5754 5754 5755
5746 5745 5746 5746 5746 5746 5747 5747 5748 5748 5749 5750 5750 5752 5753 5754 5754 5751 5753 5752 5751 5751 5750 5750 5750 5750 5750 5749 5748 5748 5750 5750 5748 5745 5745 5748 5747 5746 5745 5747 5744 5745 5745 5745 5745
5733 5734 5735 5734 5736 5736 5735 5736 5737 5736 5737 5740 5741 5742 5744 5746 5743 5740 5743 5743 5741 5741 5741 5740 5740 5739 5739 5739 5738 5738 5740 5737 5736 5735 5736 5737 5736 5735 5734 5735 5736 5735 5735 5734 5734
5722 5721 5723 5723 5723 5724 5725 5723 5725 5725 5726 5728 5730 5732 5734 5736 5731 5733 5733 5731 5731 5731 5730 5730 5730 5730 5730 5729 5728 5727 5727 5726 5725 5723 5724 5725 5723 5719 5725 5725 5722 5721 5722 5725 5725
5707 5708 5710 5710 5711 5711 5712 5712 5712 5711 5713 5716 5719 5720 5722 5722 5720 5723 5721 5720 5721 5720 5720 5719 5719 5719 5719 5718 5717 5717 5717 5715 5714 5712 5711 5712 5717 5713 5714 5713 5714 5714 5714 5714 5713
5690 5692 5693 5695 5696 5697 5697 5698 5699 5697 5700 5703 5705 5708 5711 5706 5708 5709 5710 5709 5708 5707 5708 5707 5707 5707 5707 5706 5705 5705 5705 5706 5704 5698 5699 5703 5711 5705 5704 5704 5702 5700 5699 5700 5700
5670 5671 5675 5677 5678 5681 5683 5683 5683 5684 5686 5689 5691 5695 5698 5696 5697 5696 5698 5697 5697 5696 5695 5695 5695 5696 5695 5695 5695 5694 5694 5692 5693 5689 5689 5690 5699 5696 5692 5690 5688 5684 5682 5680 5682
5649 5651 5655 5657 5659 5662 5666 5665 5666 5669 5673 5674 5677 5682 5684 5682 5684 5685 5685 5686 5686 5685 5685 5684 5684 5683 5684 5685 5685 5683 5682 5684 5684 5681 5678 5681 5689 5684 5681 5675 5672 5670 5669 5668 5666
5626 5629 5635 5637 5639 5644 5649 5649 5653 5654 5659 5663 5666 5667 5668 5671 5671 5671 5673 5676 5676 5675 5674 5673 5674 5674 5674 5672 5673 5673 5674 5676 5676 5671 5672 5671 5676 5675 5670 5666 5662 5659 5654 5649 5647
5607 5611 5615 5617 5619 5625 5631 5633 5636 5637 5641 5646 5651 5656 5654 5656 5660 5659 5661 5664 5664 5663 5661 5662 5664 5663 5661 5663 5663 5663 5666 5668 5667 5662 5663 5660 5665 5665 5660 5656 5648 5645 5642 5639 5636
5592 5595 5600 5600 5603 5609 5613 5616 5619 5618 5620 5632 5635 5642 5639 5644 5647 5648 5648 5650 5652 5651 5651 5653 5655 5652 5654 5653 5655 5656 5656 5659 5659 5656 5655 5652 5657 5658 5652 5640 5636 5632 5629 5627 5624
5577 5581 5583 5586 5591 5595 5599 5602 5603 5602 5602 5616 5619 5627 5623 5630 5634 5633 5635 5639 5640 5640 5640 5643 5644 5644 5644 5645 5647 5647 5647 5648 5649 5648 5649 5642 5642 5652 5641 5632 5628 5623 5619 5614 5611
5564 5569 5572 5576 5579 5584 5589 5590 5591 5594 5589 5599 5603 5608 5610 5617 5622 5619 5623 5625 5627 5629 5633 5636 5633 5635 5636 5639 5636 5641 5638 5639 5640 5640 5642 5635 5626 5637 5631 5624 5619 5614 5609 5604 5601
5552 5554 5560 5564 5568 5573 5576 5577 5581 5583 5585 5587 5589 5596 5600 5602 5606 5604 5609 5613 5616 5619 5622 5623 5624 5627 5630 5629 5630 5631 5631 5631 5632 5631 5633 5630 5615 5625 5620 5615 5611 5608 5603 5598 5594
5543 5545 5550 5549 5557 5560 5563 5566 5569 5572 5574 5576 5580 5585 5587 5590 5591 5594 5598 5602 5606 5610 5614 5616 5618 5620 5621 5623 5623 5623 5623 5623 5622 5622 5622 5618 5615 5615 5611 5604 5601 5600 5599 5593 5590
5533 5536 5539 5542 5544 5543 5548 5553 5557 5562 5563 5566 5570 5572 5576 5579 5580 5583 5587 5593 5598 5603 5607 5609 5612 5612 5614 5615 5617 5616 5616 5614 5613 5611 5613 5611 5608 5608 5602 5599 5596 5594 5592 5589 5584
5525 5527 5528 5532 5533 5533 5536 5540 5545 5549 5553 5557 5561 5564 5567 5569 5573 5575 5578 5584 5590 5594 5599 5601 5604 5606 5607 5605 5608 5607 5607 5607 5602 5603 5600 5604 5604 5601 5598 5594 5594 5591 5589 5585 5579
5518 5519 5520 5521 5520 5522 5527 5531 5534 5537 5543 5547 5552 5557 5560 5563 5565 5569 5573 5579 5583 5588 5592 5594 5596 5599 5599 5598 5598 5596 5596 5596 5594 5594 5591 5595 5595 5592 5592 5590 5590 5586 5583 5580 5577
5510 5511 5511 5511 5511 5512 5516 5521 5526 5530 5535 5542 5548 5553 5555 5557 5561 5564 5568 5573 5576 5582 5586 5587 5589 5590 5591 5590 5589 5589 5587 5587 5587 5586 5584 5584 5588 5587 5585 5586 5585 5582 5579 5577 5575
5501 5503 5503 5504 5504 5504 5508 5512 5518 5525 5532 5538 5542 5546 5550 5555 5557 5560 5563 5567 5571 5575 5577 5579 5578 5578 5579 5578 5577 5578 5577 5577 5576 5577 5574 5575 5578 5580 5580 5580 5580 5579 5576 5574 5571
5494 5495 5496 5498 5500 5502 5505 5511 5517 5523 5526 5533 5539 5544 5548 5550 5554 5557 5560 5564 5566 5568 5567 5568 5568 5568 5567 5565 5566 5567 5567 5564 5562 5561 5565 5566 5569 5573 5575 5575 5575 5574 5573 5571 5570
5487 5490 5492 5495 5499 5502 5506 5512 5518 5522 5526 5530 5535 5539 5544 5547 5550 5552 5554 5558 5559 5560 5559 5558 5558 5559 5557 5555 5554 5555 5552 5548 5547 5547 5552 5555 5560 5566 5568 5569 5570 5569 5570 5568 5567
5484 5487 5491 5494 5499 5503 5507 5512 5515 5519 5524 5530 5535 5539 5542 5545 5546 5548 5549 5550 5550 5550 5552 5551 5550 5548 5546 5543 5542 5537 5537 5536 5532 5536 5538 5548 5550 5557 5561 5561 5564 5566 5566 5566 5564
5482 5484 5488 5493 5498 5502 5506 5511 5516 5521 5525 5529 5533 5536 5538 5540 5541 5543 5544 5544 5543 5541 5540 5539 5537 5536 5534 5530 5525 5523 5526 5523 5521 5520 5525 5534 5543 5548 5552 5553 5557 5560 5561 5562 5562
5478 5481 5489 5493 5497 5502 5507 5512 5517 5520 5524 5527 5530 5532 5534 5537 5537 5537 5536 5536 5536 5534 5530 5529 5526 5523 5525 5521 5517 5515 5512 5509 5508 5507 5513 5521 5534 5541 5548 5551 5551 5554 5555 5557 5558
Wind_Speed
53 54 53 52 53 50 48 48 46 46 46 45 44 43 42 41 40 39 39 39 42 39 40 42 43 45 44 40 41 43 47 45 41 38 38 33 36 38 42 44 45 43 45 47 48
54 55 55 54 53 52 49 47 47 47 45 44 42 41 39 37 37 38 39 40 41 42 43 43 46 46 44 43 45 44 44 41 41 43 42 42 42 37 41 43 44 43 47 48 50
52 55 54 55 54 53 50 49 46 46 46 45 43 42 42 39 37 39 41 39 39 40 42 44 45 46 47 48 48 48 48 46 45 46 46 45 44 40 42 42 42 44 48 49 51
54 53 54 55 56 55 51 47 47 46 48 49 48 45 46 45 41 44 42 41 41 43 44 46 49 50 51 51 52 53 51 49 50 50 51 49 47 45 43 40 42 44 46 49 50
58 56 55 56 57 56 53 51 48 48 51 54 53 50 49 46 44 51 46 43 45 44 44 46 47 49 50 52 54 52 50 52 53 53 49 46 47 47 44 39 41 43 46 49 51
64 64 60 57 57 59 58 53 54 53 49 53 54 55 51 49 49 49 48 47 48 46 47 49 50 51 53 53 53 52 54 54 53 51 51 50 48 51 47 43 44 45 46 48 50
68 68 64 64 60 59 60 58 56 54 55 53 53 50 50 50 52 47 44 48 50 48 49 51 53 54 55 54 55 55 56 57 49 46 53 54 50 42 39 38 40 41 44 48 50
75 74 70 66 66 65 63 62 62 58 57 57 55 55 49 50 53 49 48 44 48 49 51 51 51 51 52 53 54 54 54 48 41 47 48 46 42 35 36 40 42 45 45 45 48
80 76 74 74 65 66 65 62 63 62 59 62 57 57 53 51 54 51 48 46 47 48 49 49 48 48 50 50 50 47 47 47 42 42 43 42 33 33 37 40 42 45 47 49 47
82 78 76 72 66 70 67 67 69 67 60 56 54 57 56 51 47 47 45 44 43 43 44 46 46 48 47 47 47 44 49 44 40 35 37 36 30 33 32 38 43 49 52 52 50
76 78 73 74 71 69 71 76 66 66 70 56 51 48 45 44 44 35 35 40 45 46 46 45 47 40 38 47 47 44 43 41 32 36 35 34 30 27 29 39 48 52 55 53 54
73 72 71 71 70 69 66 67 71 69 64 61 61 48 44 46 49 47 46 47 49 45 44 46 42 34 42 41 42 43 39 35 32 34 33 33 28 25 31 41 50 52 53 53 54
64 68 65 61 65 66 64 61 67 70 76 66 69 67 65 57 54 51 51 52 50 46 44 45 35 39 37 39 39 37 38 33 34 29 30 34 30 27 32 44 39 43 46 44 46
56 56 55 51 56 57 58 63 64 63 62 64 62 63 59 58 52 49 48 48 45 40 43 44 35 36 38 38 36 38 34 34 29 30 30 35 36 26 34 40 37 39 44 46 47
52 51 50 47 45 46 49 49 52 49 51 54 53 54 51 52 49 47 47 47 44 41 43 36 34 36 37 31 36 34 31 30 31 32 31 32 37 32 35 43 37 40 41 45 43
48 50 45 45 43 45 47 48 40 41 44 41 46 46 47 47 46 47 47 45 43 40 40 35 36 37 32 33 32 31 32 33 33 34 30 31 41 35 41 42 36 36 38 35 33
36 36 46 46 47 43 45 42 43 43 40 40 39 42 41 41 44 46 45 44 43 40 38 35 35 32 31 30 31 31 32 34 35 32 31 32 37 38 39 39 37 36 23 29 25
37 41 41 44 46 41 46 46 41 40 45 46 40 37 39 42 41 40 41 40 40 37 33 33 29 31 31 30 31 31 32 34 35 33 32 34 37 34 35 33 34 35 36 28 29
35 39 35 37 46 42 40 43 46 47 45 48 38 36 37 38 37 36 37 37 35 33 32 31 31 27 28 31 32 33 32 32 35 33 36 34 33 34 30 29 28 29 24 27 20
34 33 32 31 35 38 40 42 48 45 43 36 32 39 39 34 35 33 30 31 32 30 28 31 30 28 28 31 34 35 35 34 35 34 37 34 34 33 26 25 23 17 17 20 14
32 28 26 30 30 34 36 43 45 40 38 36 29 28 34 34 31 29 28 29 28 25 23 26 28 31 31 31 33 35 39 39 39 38 38 38 36 29 24 22 22 19 12 14 19
28 28 29 27 25 33 41 44 47 38 29 35 34 31 30 27 22 25 26 29 26 22 24 27 31 35 34 35 36 36 40 43 43 41 46 43 41 29 21 20 20 14 12 12 11
24 24 24 22 27 36 37 33 33 35 38 32 33 33 26 23 23 22 21 23 21 23 29 30 33 34 37 40 40 40 42 46 50 52 47 44 43 34 20 20 22 15 10 14 14
23 24 25 22 28 32 31 25 21 22 26 29 30 23 19 20 21 21 21 23 27 28 31 34 36 38 41 44 44 43 45 48 50 53 50 49 43 35 26 23 22 24 15 11 11
21 21 22 25 28 22 18 20 24 21 15 13 15 18 17 17 19 21 24 26 29 32 34 34 36 39 42 42 43 46 47 48 53 53 52 48 46 39 30 24 14 26 23 16 11
22 25 26 25 23 21 24 21 17 15 16 17 16 15 18 20 22 22 24 27 29 32 33 34 37 37 35 35 33 38 39 43 50 54 52 49 45 41 32 23 19 24 23 17 13
30 27 23 22 25 26 19 17 17 15 13 14 15 16 18 18 19 22 24 25 26 28 34 35 31 30 24 26 29 36 27 19 24 40 50 51 47 43 39 25 30 13 12 13 12
Wind_Direction
269 268 269 270 272 270 271 271 269 269 269 268 268 266 268 269 268 268 267 267 268 266 267 270 274 276 278 281 278 276 276 279 281 286 280 267 265 258 260 264 261 257 258 260 261
269 268 270 271 271 272 272 271 270 269 268 267 267 267 267 267 268 270 269 268 266 269 269 270 273 274 277 277 277 280 277 279 281 280 280 278 277 259 267 265 258 258 263 263 264
270 268 268 268 271 271 270 269 268 268 266 263 262 263 265 265 267 268 267 268 269 268 269 271 273 275 277 277 279 279 278 279 281 280 279 279 278 271 268 269 268 255 254 255 257
273 267 264 266 267 269 271 271 269 266 265 263 261 263 265 267 268 265 269 268 270 270 270 273 275 275 274 276 278 280 280 281 279 279 279 281 279 278 276 271 264 265 257 261 262
274 271 264 262 263 264 265 267 268 266 264 266 264 263 264 267 265 268 267 272 269 270 272 273 275 274 276 278 281 281 279 276 277 279 280 277 275 274 268 263 260 258 256 258 262
278 274 269 262 261 261 263 264 266 264 267 268 268 266 264 268 267 265 267 268 270 272 274 275 274 275 276 276 277 277 277 276 277 277 273 269 267 268 270 265 261 257 251 248 250
280 277 274 267 264 260 258 263 262 263 262 264 266 269 266 267 268 268 267 269 270 271 271 271 273 275 276 275 274 274 274 275 276 273 273 272 274 270 268 263 271 272 272 272 267
280 277 275 271 266 265 260 261 263 262 263 264 267 268 272 265 264 268 269 271 269 270 273 274 274 273 272 273 273 273 274 275 269 266 266 268 269 265 271 273 274 273 273 267 263
278 274 272 272 262 261 266 258 262 263 265 265 268 267 269 266 267 266 268 267 270 272 272 274 275 276 274 273 273 273 275 269 265 262 263 262 258 270 280 280 282 286 285 283 276
273 268 266 263 258 253 255 253 256 264 262 265 266 264 266 264 261 262 261 265 268 272 273 272 274 274 273 274 272 265 270 272 266 261 261 265 270 284 284 287 289 286 285 279 272
264 263 260 257 251 252 250 255 255 261 262 261 264 257 259 261 253 253 265 273 274 270 267 267 270 272 266 267 272 270 268 266 262 261 266 274 290 291 290 289 287 283 278 270 260
260 256 255 255 251 251 248 251 256 253 252 252 253 254 252 250 263 265 270 278 277 269 266 266 269 258 260 264 263 262 262 260 257 262 275 284 291 289 295 292 284 286 287 278 268
260 259 261 259 257 253 248 250 251 255 256 254 252 251 262 260 270 273 270 266 264 261 262 263 257 258 258 258 259 261 261 259 261 267 279 277 280 288 289 288 296 292 286 276 269
261 259 258 262 257 257 254 253 252 251 259 252 254 259 260 263 261 260 258 257 255 254 255 258 251 255 256 258 259 257 258 260 266 272 279 285 287 284 297 302 297 291 281 278 270
259 256 253 253 257 258 256 253 259 259 261 253 252 250 253 257 257 252 251 250 246 247 252 251 245 246 249 248 250 259 261 264 268 273 278 291 298 307 305 304 289 295 289 287 277
245 245 254 251 251 253 253 252 256 258 254 252 252 253 254 252 250 244 242 243 243 245 243 240 242 248 246 249 257 262 263 266 271 276 285 290 298 309 304 295 285 294 286 287 277
242 261 259 248 255 257 250 251 254 260 247 245 248 248 243 238 235 237 238 237 237 237 241 239 245 249 251 259 263 264 268 273 273 280 287 292 291 301 301 292 288 300 279 296 273
265 257 266 263 267 260 256 258 254 249 244 239 236 230 230 233 226 227 230 234 235 233 233 238 239 249 257 257 257 265 269 269 277 280 284 286 291 300 292 293 296 305 270 301 266
259 268 260 258 259 261 248 246 241 240 237 230 218 213 216 219 217 216 221 226 229 234 235 237 245 253 258 261 263 261 261 265 270 276 282 282 288 289 287 289 288 287 292 297 292
259 261 260 260 257 249 250 246 238 223 211 206 206 208 209 207 216 222 225 232 236 237 239 243 247 246 248 250 255 262 265 265 268 273 274 278 284 287 287 284 291 305 298 302 279
256 263 264 268 270 248 241 230 219 206 206 191 199 204 211 201 210 222 228 240 242 241 242 250 249 250 248 253 255 258 263 265 267 267 262 273 276 280 283 279 285 309 295 300 263
255 256 270 270 265 241 224 215 212 191 186 204 202 207 210 215 215 222 231 237 245 254 254 252 254 256 259 260 262 260 262 261 255 247 258 262 268 269 278 265 278 297 298 283 258
250 252 258 258 228 215 204 200 190 192 195 194 209 217 219 217 225 237 243 243 244 252 256 259 261 267 270 271 268 266 265 263 259 256 257 255 257 260 266 263 271 276 274 274 264
248 247 242 235 223 213 205 196 196 200 202 209 211 210 209 222 234 238 246 254 256 258 263 265 268 270 272 272 271 269 268 263 259 257 253 252 249 251 259 263 274 275 281 266 263
227 228 230 214 198 198 194 188 180 172 173 185 201 215 220 228 241 248 252 257 262 266 269 268 268 269 270 272 270 267 264 260 260 259 254 245 246 245 242 241 234 273 274 294 287
209 203 198 195 193 186 178 168 160 175 190 201 212 224 233 236 241 248 258 266 270 271 273 274 275 274 275 277 273 272 269 262 254 251 249 244 237 240 250 256 269 257 269 280 274
203 191 177 173 176 172 164 170 179 185 195 211 224 233 239 245 251 260 268 270 272 275 276 279 278 279 277 275 280 293 293 290 280 250 241 237 232 234 250 269 270 252 256 242 221